This is the latest recevied weather packets stored in our database for station/object N7TUG-8. If no packets are shown the sender has not sent any weather packets the latest 10 day(s).
| Time | Temp. | Humidity | Pressure | Rain* | Wind** | Luminosity | Snow |
|---|---|---|---|---|---|---|---|
| 1777857587 | 24.44° C | 48% | 1008.9 hPa | 0 mm | 2.68 m/s, 311° | - | - |
| 1777857066 | 24.44° C | 48% | 1008.9 hPa | 0 mm | 2.68 m/s, 306° | - | - |
| 1777856716 | 23.89° C | 49% | 1009 hPa | 0 mm | 2.24 m/s, 323° | - | - |
| 1777856241 | 24.44° C | 49% | 1009 hPa | 0 mm | 2.24 m/s, 311° | - | - |
| 1777855923 | 24.44° C | 49% | 1009.1 hPa | 0 mm | 2.24 m/s, 313° | - | - |
| 1777855431 | 24.44° C | 50% | 1009.1 hPa | 0 mm | 2.68 m/s, 314° | - | - |
| 1777854511 | 24.44° C | 52% | 1009.3 hPa | 0 mm | 2.68 m/s, 312° | - | - |
| 1777854272 | 24.44° C | 53% | 1009.3 hPa | 0 mm | 3.13 m/s, 314° | - | - |
| 1777853606 | 24.44° C | 53% | 1009.3 hPa | 0 mm | 2.68 m/s, 309° | - | - |
| 1777853448 | 24.44° C | 53% | 1009.3 hPa | 0 mm | 2.68 m/s, 309° | - | - |
| 1777852701 | 24.44° C | 53% | 1009.5 hPa | 0 mm | 1.79 m/s, 305° | - | - |
| 1777852642 | 24.44° C | 53% | 1009.5 hPa | 0 mm | 1.79 m/s, 305° | - | - |
| 1777851871 | 24.44° C | 54% | 1009.6 hPa | 0 mm | 1.34 m/s, 332° | - | - |
| 1777850951 | 24.44° C | 54% | 1009.8 hPa | 0 mm | 2.24 m/s, 324° | - | - |
| 1777850142 | 24.44° C | 54% | 1009.9 hPa | 0 mm | 1.34 m/s, 334° | - | - |
| 1777850011 | 24.44° C | 53% | 1010.1 hPa | 0 mm | 2.24 m/s, 316° | - | - |
| 1777849412 | 24.44° C | 54% | 1010.2 hPa | 0 mm | 1.79 m/s, 328° | - | - |
| 1777849146 | 24.44° C | 54% | 1010.2 hPa | 0 mm | 2.24 m/s, 323° | - | - |
| 1777848241 | 23.33° C | 54% | 1010.6 hPa | 0 mm | 2.68 m/s, 333° | - | - |
| 1777847787 | 23.33° C | 54% | 1010.7 hPa | 0 mm | 2.68 m/s, 316° | - | - |
| 1777847426 | 23.33° C | 55% | 1010.8 hPa | 0 mm | 3.13 m/s, 328° | - | - |
| 1777846651 | 23.33° C | 55% | 1010.9 hPa | 0 mm | 3.58 m/s, 331° | - | - |
| 1777845706 | 23.33° C | 54% | 1011.1 hPa | 0 mm | 3.58 m/s, 340° | - | - |
| 1777844762 | 22.78° C | 59% | 1011.2 hPa | 0 mm | 3.58 m/s, 315° | - | - |
| 1777844592 | 22.78° C | 59% | 1011.2 hPa | 0 mm | 3.58 m/s, 325° | - | - |
* Rain latest hour (hover to see other rain measurements)
** Current wind speed in m/s (hover to see current wind gust speed)